Weather History for Lafayette, IN

Change the Weather History Date:

Sunday, September 8, 2013

  Actual Average Record
Temperature  
Mean Temperature 77 °F 69 °F  
Max Temperature 88 °F 81 °F 94 °F (1964)
Min Temperature 66 °F 58 °F 33 °F (1996)
Degree Days  
Heating Degree Days 0 1  
Month to date heating degree days 1 7  
Since 1 July heating degree days 21 13  
Cooling Degree Days 12 5  
Month to date cooling degree days 51 48  
Year to date cooling degree days 777 900  
Growing Degree Days 27 (Base 50)    
Moisture  
Dew Point 66 °F    
Average Humidity 70    
Maximum Humidity 93    
Minimum Humidity 46    
Precipitation  
Precipitation 0.00 in 0.09 in 0.82 in (2007)
Month to date precipitation 0.00 0.72  
Year to date precipitation 27.63 26.27  
Sea Level Pressure  
Sea Level Pressure 29.95 in    
Wind  
Wind Speed 4 mph (East)    
Max Wind Speed 18 mph    
Max Gust Speed 22 mph    
Visibility 10 miles    
Events      
T = Trace of Precipitation, MM = Missing Value Source: NWS Daily Summary

Daily Weather History Graph

Daily Weather History Graph

Search for Another Location

Airport:

Trip Planner

Search our weather history database for the weather conditions in past years. The results will help you decide how hot, cold, wet, or windy it might be!

Date:

Astronomy

Sep. 08, 2013 Rise Set
Actual Time 7:22 AM EDT 8:07 PM EDT
Civil Twilight 6:54 AM EDT 8:35 PM EDT
Nautical Twilight 6:21 AM EDT 9:07 PM EDT
Astronomical Twilight 5:47 AM EDT 9:41 PM EDT
Moon 10:39 AM EDT (9/8) 9:42 PM EDT (9/8)
Length of Visible Light 13h 40m
Length of Day
12h 45m
Waxing Crescent, 11% of the Moon is Illuminated
Sep 8
Waxing Crescent
Sep 12
First Quarter
Sep 19
Full
Sep 26
Last Quarter
Oct 4
New

Hourly Weather History & Observations

Time (EDT) Temp. Heat Index Dew Point Humidity Pressure Visibility Wind Dir Wind Speed Gust Speed Precip Events Conditions
12:54 AM 72.0 °F - 66.0 °F 81% 29.94 in 10.0 mi Calm Calm - N/A   Overcast
1:54 AM 71.1 °F - 66.0 °F 84% 29.95 in 10.0 mi Calm Calm - N/A   Mostly Cloudy
2:54 AM 69.1 °F - 66.0 °F 90% 29.94 in 10.0 mi Calm Calm - N/A   Scattered Clouds
3:54 AM 70.0 °F - 66.0 °F 87% 29.93 in 10.0 mi Calm Calm - N/A   Partly Cloudy
4:54 AM 66.9 °F - 64.9 °F 93% 29.93 in 9.0 mi Calm Calm - N/A   Partly Cloudy
5:54 AM 66.9 °F - 64.9 °F 93% 29.93 in 8.0 mi Calm Calm - N/A   Partly Cloudy
6:54 AM 66.9 °F - 64.9 °F 93% 29.94 in 7.0 mi Calm Calm - N/A   Mostly Cloudy
7:54 AM 66.0 °F - 64.9 °F 96% 29.96 in 5.0 mi Calm Calm - N/A   Scattered Clouds
8:54 AM 72.0 °F - 66.9 °F 84% 29.96 in 9.0 mi Calm Calm - N/A   Overcast
9:54 AM 75.9 °F - 66.9 °F 74% 29.97 in 10.0 mi ENE 4.6 mph - N/A   Overcast
10:54 AM 77.0 °F - 66.0 °F 69% 29.97 in 10.0 mi ENE 5.8 mph - N/A   Overcast
11:54 AM 81.0 °F 83.0 °F 66.0 °F 60% 29.97 in 10.0 mi SE 5.8 mph - N/A   Overcast
12:54 PM 82.9 °F 85.0 °F 66.0 °F 56% 29.97 in 10.0 mi East 5.8 mph - N/A   Overcast
1:54 PM 87.1 °F 88.9 °F 64.9 °F 48% 29.96 in 10.0 mi ENE 6.9 mph - N/A   Scattered Clouds
2:54 PM 88.0 °F 89.3 °F 64.0 °F 45% 29.96 in 10.0 mi SSE 5.8 mph - N/A   Overcast
3:54 PM 86.0 °F 87.3 °F 64.0 °F 48% 29.94 in 10.0 mi SW 3.5 mph - N/A   Partly Cloudy
4:54 PM 88.0 °F 89.6 °F 64.9 °F 46% 29.92 in 10.0 mi Calm Calm - N/A   Partly Cloudy
5:54 PM 86.0 °F 87.6 °F 64.9 °F 49% 29.91 in 10.0 mi East 4.6 mph - N/A   Scattered Clouds
6:54 PM 82.9 °F 84.4 °F 64.0 °F 53% 29.91 in 10.0 mi East 3.5 mph - N/A   Partly Cloudy
7:54 PM 79.0 °F - 68.0 °F 69% 29.94 in 10.0 mi ENE 17.3 mph - N/A   Overcast
8:54 PM 75.0 °F - 66.9 °F 76% 29.95 in 10.0 mi East 9.2 mph - N/A   Mostly Cloudy
9:54 PM 73.9 °F - 66.9 °F 79% 29.96 in 10.0 mi East 9.2 mph - N/A   Clear
10:54 PM 73.0 °F - 66.0 °F 79% 29.97 in 10.0 mi East 6.9 mph - N/A   Clear
11:54 PM 71.1 °F - 64.9 °F 81% 29.96 in 10.0 mi East 8.1 mph - N/A   Clear